Regional Weather Roundup
Issued by NWS

Home | Current Version | Previous Version | Text Only | Print | Product List | Glossary On
Versions: 1 2 3 4 5 6 7 8 9 10 11 12 13 14 15 16 17 18 19 20 21 22 23 24 25 26 27 28
000
ASUS45 KPSR 240710
RWRAZ

ARIZONA HOURLY REGIONAL WEATHER ROUNDUP
NATIONAL WEATHER SERVICE PHOENIX AZ
1200 AM MST SUN SEP 24 2017

NOTE: FAIR INDICATES FEW OR NO CLOUDS BELOW 12,000 FEET WITH NO
SIGNIFICANT WEATHER AND/OR OBSTRUCTIONS TO VISIBILITY.

AZZ001>003-036-240800-
NORTHWEST ARIZONA

CITY           SKY/WX    TMP DP  RH WIND       PRES   REMARKS
BULLHEAD CITY  CLEAR     72  27  18 N21       29.85R
KINGMAN        CLEAR     51  25  36 SE6       29.94R
$$

AZZ004>008-015-016-018-240800-
NORTH CENTRAL ARIZONA

CITY           SKY/WX    TMP DP  RH WIND       PRES   REMARKS
GRAND CANYON   PTCLDY    33  21  61 W3        29.97S
WILLIAMS       CLEAR     32  21  64 CALM      29.98F
PRESCOTT       CLEAR     47  26  44 W5        29.94S
FLAGSTAFF      CLEAR     39  22  50 VRB6      29.97S WCI  35
PAYSON           N/A     48  18  29 CALM      29.93S
PAGE           PTCLDY    53  27  36 W8        29.87R
$$

AZZ009>014-017-240800-
NORTHEAST ARIZONA

CITY           SKY/WX    TMP DP  RH WIND       PRES   REMARKS
WINSLOW        CLEAR     49  18  29 NW10      29.92R
SAINT JOHNS    CLEAR     47  17  30 SW5       29.94R
WINDOW ROCK    CLEAR     43  18  36 S5        29.94S
SHOW LOW       CLEAR     45  25  45 S8        29.98S
$$

AZZ540-542>544-546-548-240800-
GREATER PHOENIX AREA

CITY           SKY/WX    TMP DP  RH WIND       PRES   REMARKS
PHOENIX        CLEAR     71  32  23 SW6       29.74S
BUCKEYE        CLEAR     64  21  19 N7        29.76S
LUKE AFB       CLEAR     68  29  23 NW9       29.74S
DEER VALLEY    CLEAR     66  25  21 NE5       29.75S
SCOTTSDALE     CLEAR     67  33  28 CALM      29.77S
MESA-GATEWAY   CLEAR     63  30  29 SE6       29.77S
$$

AZZ539-553-240800-
SOUTHWEST MARICOPA COUNTY AND PINAL COUNTY

CITY           SKY/WX    TMP DP  RH WIND       PRES   REMARKS
CASA GRANDE    NOT AVBL
GILA BEND      FAIR      65  27  23 S7        29.74F
$$

AZZ503-504-507>509-240800-
SOUTHEAST ARIZONA

CITY           SKY/WX    TMP DP  RH WIND       PRES   REMARKS
TUCSON         CLEAR     66  30  26 W7        29.84S
DAVIS-MONTHAN  CLEAR     64  28  25 SW7       29.82S
NOGALES        CLEAR     57  34  41 NE5       29.89S
SIERRA VISTA   CLEAR     58  30  35 W12       29.92S
DOUGLAS        CLEAR     57  31  37 N6        29.89R
SAFFORD        CLEAR     65  21  18 NW9       29.81R
$$

AZZ532-240800-
SOUTHWEST ARIZONA

CITY           SKY/WX    TMP DP  RH WIND       PRES   REMARKS
YUMA           CLEAR     72  31  22 W6        29.74S
$$

CAZ041-043-047-048-061-525>527-560>570-240800-
SOUTHERN CALIFORNIA

CITY           SKY/WX    TMP DP  RH WIND       PRES   REMARKS
DOWNTOWN L.A.  CLEAR     65  56  72 CALM      29.85S
L.A. AIRPORT   CLEAR     63  56  78 E3        29.85S
SAN DIEGO      CLEAR     65  56  72 CALM      29.86F
BURBANK        CLEAR     63  50  62 E6        29.85S
ONTARIO        CLEAR     61  48  62 CALM      29.87R
RIVERSIDE      CLEAR     60  52  74 CALM      29.87S
PALM SPRINGS   CLEAR     71  47  42 NW8       29.83R
EL CENTRO NAS  CLEAR     67  45  45 W8        29.77S
IMPERIAL       CLEAR     68  49  50 W8        29.75S
BLYTHE         CLEAR     73  24  16 N12       29.76R
NEEDLES        CLEAR     71  27  19 N13       29.84R
$$

NVZ020-UTZ003-240800-
SOUTHERN NEVADA-UTAH

CITY           SKY/WX    TMP DP  RH WIND       PRES   REMARKS
LAS VEGAS      CLEAR     60  34  37 E7        29.93R
SALT LAKE CITY LGT RAIN  45  42  89 SE5       29.92F
$$

NMZ009-TXZ055-240800-
NEW MEXICO-WEST TEXAS

CITY           SKY/WX    TMP DP  RH WIND       PRES   REMARKS
ALBUQUERQUE    MOCLDY    61  53  75 NW8       29.88R
EL PASO        PTCLDY    77  44  30 W8        29.82R
$$


........................KEY........................
SKY/WX - SKY CONDITION/WEATHER
TMP    - TEMPERATURE IN FAHRENHEIT
DP     - DEW POINT IN FAHRENHEIT
RH     - RELATIVE HUMIDITY IN PERCENT
WIND   - DIRECTION AND SPEED IN MILES PER HOUR (MPH)
VRB    - VARIABLE WIND DIRECTION
PRES   - MEAN SEA LEVEL PRESSURE IN INCHES OF MERCURY
         F - FALLING PRESSURE   R - RISING PRESSURE
         S - STEADY PRESSURE
VSB    - VISIBILITY IN MILES
HX     - HEAT INDEX IN FAHRENHEIT
WCI    - WIND CHILL INDEX IN FAHRENHEIT
TC     - TEMPERATURE IN CELSIUS WHICH IS ALSO KNOWN AS
         TEMPERATURE IN CENTIGRADE
AFB    - AIR FORCE BASE
         LUKE AFB IS LUKE AIR FORCE BASE
         DAVIS-MONTHAN IS DAVIS-MONTHAN AIR FORCE BASE
NAS    - NAVAL AIR STATION
         EL CENTRO NAS IS EL CENTRO NAVAL AIR STATION
N/A    - NOT AVAILABLE





USA.gov is the U.S. government's official web portal to all federal, state and local government web resources and services.